Location: Astronomy Club of Akron Observatory
(40.9700°N, 81.5606°W)
Time: 11:21:02
(UTC-05:00)

Daily predictions for brighter satellites

Satellite Brightness Start Highest point End
(mag) Time Altitude Azimuth Time Altitude Azimuth Time Altitude Azimuth
Cosmos 1461 2.9 18:32:59 10° NNW 18:36:57 58° NE 18:40:59 10° SE
COSMO-SKYMED 1 2.6 18:33:24 10° NNE 18:37:47 87° ESE 18:42:07 10° SSW
Cosmos 2360 Rocket 2.9 18:37:44 10° N 18:42:52 34° ENE 18:47:58 10° ESE
Cosmos 1980 Rocket 4.2 18:38:29 10° NW 18:43:34 35° WSW 18:48:39 10° SSW
Cosmos 2219 Rocket 4.1 18:43:12 10° NNE 18:44:28 11° NE 18:45:44 10° ENE
Okean 2 Rocket 3.5 18:40:19 10° SSW 18:44:45 69° W 18:49:11 10° N
Cosmos 1633 3.6 18:43:20 10° SSE 18:46:26 26° E 18:49:32 10° NNE
Cosmos 1709 Rocket 4.2 18:41:54 10° SSE 18:47:48 47° E 18:53:40 10° NNE
Cosmos 1238 Rocket 3.4 18:48:03 10° NNE 18:50:23 20° ENE 18:52:41 10° SE
Tiangong 2 1.5 18:48:14 10° W 18:51:16 58° SSW 18:54:17 10° ESE
ASTRO F (AKARI) 4.5 18:50:02 10° NNE 18:53:38 87° ESE 18:57:02 10° SSW
Cosmos 1818 3.6 18:51:01 10° SSW 18:56:26 77° ESE 19:01:55 10° NE
Cosmos 1602 4.2 18:56:46 10° SSE 19:00:21 37° E 19:03:58 10° NNE
Cosmos 2151 Rocket 3.6 18:59:08 10° S 19:03:38 87° ESE 19:08:11 10° N
Cosmos 407 Rocket 3.7 18:58:42 10° SSW 19:03:56 79° WNW 19:09:16 10° NNE
Cosmos 676 Rocket 3.9 19:02:06 10° SSW 19:07:15 78° ESE 19:12:29 10° NNE
Okean 1 Rocket 3.7 19:03:32 10° SSE 19:07:35 34° E 19:11:38 10° NNE
Cosmos 1833 4.2 19:02:47 10° S 19:08:23 61° ESE 19:13:58 10° NNE
Helios 1B rocket 3.8 19:13:07 18° ESE 19:13:07 18° ESE 19:15:38 10° SE
Cosmos 2333 Rocket 3.8 19:11:01 10° NNE 19:14:17 15° NE 19:15:33 14° ENE
DELTA 2 R/B (1) 3.8 19:09:42 10° W 19:15:17 66° SSW 19:19:39 17° ESE
SL-16 R/B 3.1 19:12:47 10° NNW 19:18:17 51° WSW 19:23:43 10° S
Cosmos 1340 2.6 19:20:17 10° N 19:24:06 90° ENE 19:27:52 10° S
BREEZE-M DEB (TANK) 3.0 19:22:06 10° SW 19:26:08 35° SSE 19:26:44 31° ESE
Cosmos 1140 Rocket 3.4 19:21:13 10° S 19:26:18 70° ESE 19:31:26 10° NNE
FengYun 1-2 T 4.1 19:22:09 10° SSE 19:27:36 73° ENE 19:33:06 10° N
SJ-6B 3.3 19:24:35 10° S 19:28:36 65° W 19:32:32 10° NNW
Okean 1-7 Rocket 3.9 19:25:32 10° N 19:29:54 44° ENE 19:34:11 10° SSE
Cosmos 1025 Rocket 3.6 19:27:59 10° N 19:32:00 34° ENE 19:33:21 28° ESE
TSX-5 4.0 19:29:33 10° SW 19:32:39 51° WNW 19:35:50 10° NNE
Cosmos 2322 Rocket 3.8 19:30:16 10° NW 19:35:19 35° WSW 19:40:21 10° S
Meteor 1-19 Rocket 4.2 19:29:57 10° N 19:35:39 83° E 19:41:25 10° S
Cosmos 614 Rocket 3.8 19:31:24 10° S 19:36:25 64° ESE 19:41:27 10° NNE
Cosmos 2208 Rocket 4.3 19:32:37 10° N 19:37:54 48° ENE 19:41:02 23° SE
Spot 2 Rocket 3.4 19:33:38 10° SSE 19:38:39 74° ENE 19:43:44 10° N
Gbstr 26 Del rocket 2.5 19:35:38 10° SW 19:39:25 68° SE 19:40:27 43° ENE
Genesis I 3.6 19:38:19 10° NNW 19:42:06 42° NE 19:42:25 41° ENE
Abrixas rocket 4.0 19:43:18 10° SSW 19:45:01 21° S 19:45:01 21° S
SL-08 ROCKET BODY 4.4 19:40:16 10° S 19:46:21 66° E 19:52:29 10° NNE
FENGYUN 3A 3.8 19:41:00 10° S 19:46:23 76° WSW 19:51:50 10° NNW
USA 229 DEB 4.2 19:39:50 10° NNW 19:46:38 45° NE 19:49:35 31° E
USA 229 4.2 19:39:56 10° NNW 19:46:44 45° NE 19:49:39 31° E
Cosmos 1850 Rocket 3.9 19:44:00 10° S 19:49:16 71° ESE 19:54:35 10° NNE
Cosmos 2322 3.8 19:44:20 10° NNW 19:50:05 82° WSW 19:55:46 10° SSE
SAR-Lupe-1 4.4 19:51:36 47° NNE 19:51:36 47° NNE 19:54:30 10° N
CZ-2D R/B 3.0 19:53:18 43° SSE 19:54:27 77° ENE 19:58:17 10° N
Cosmos 1536 2.8 19:50:55 10° S 19:54:55 84° W 19:58:55 10° N
Envisat 3.8 19:55:47 32° NE 19:55:47 32° NE 19:59:35 10° N
SAR-Lupe-4 3.4 19:55:33 76° E 19:55:39 77° ENE 19:59:14 10° N
Spot 1 3.8 19:56:30 56° SE 19:57:10 68° ENE 20:01:16 10° N
ALOS 3.1 19:52:52 10° S 19:57:24 52° W 20:01:59 10° NNW
Meteor 1-23 Rocket 4.1 19:54:53 10° N 20:00:44 79° E 20:06:29 10° SSE
H-2A R/B 3.1 19:58:16 11° S 20:01:45 61° W 20:05:27 10° NNW
Resurs 01 Rocket 2.2 19:58:19 10° S 20:02:39 57° W 20:07:00 10° NNW
COSMOS 2428 2.6 19:58:36 10° NNW 20:04:18 70° ENE 20:06:12 42° SE
Cosmos 2237 4.1 19:58:57 10° NNW 20:04:43 88° ENE 20:07:51 28° SSE
Meteor 2-4 Rocket 3.7 20:00:12 10° NNW 20:05:46 77° W 20:11:09 10° S
Cosmos 2333 4.2 20:01:03 10° NNW 20:06:45 64° ENE 20:08:06 49° ESE
Cosmos 1610 Rocket 4.4 20:00:47 10° S 20:06:52 58° E 20:12:55 10° NNE
GEOS 3 Rocket 4.2 20:03:58 11° NNE 20:08:54 57° NW 20:14:03 10° SW
GPS 2-04 Rocket1 4.3 20:05:42 10° SW 20:08:40 27° S 20:08:40 27° S
Cosmos 2237 Rocket 3.4 20:06:09 10° N 20:09:50 26° NE 20:09:50 26° NE
Cosmos 2327 Rocket 4.4 20:07:01 10° S 20:13:13 89° E 20:19:35 10° N
Cosmos 2219 3.3 20:20:13 10° SSW 20:25:57 75° WNW 20:30:55 14° NNE
Cosmos 2360 Rocket 3.7 20:21:45 10° NW 20:26:50 35° WSW 20:31:53 10° SSW
Tiangong 2 4.2 20:25:59 10° WSW 20:26:29 11° SW 20:26:29 11° SW
Cosmos 2219 Rocket 2.4 20:24:02 10° NNW 20:28:49 56° NNE 20:28:49 56° NNE
Helios 1A 3.7 20:31:12 49° WSW 20:31:24 50° W 20:35:28 10° NNW
Cosmos 2074 Rocket 4.4 20:26:28 10° SSW 20:32:36 61° W 20:38:50 10° N
Cosmos 2184 Rocket 4.4 20:28:14 10° SSW 20:34:28 61° W 20:40:42 10° N
SL-16 R/B 4.2 20:39:11 10° N 20:40:45 16° NNE 20:40:45 16° NNE
Helios 1B rocket 4.3 20:44:20 10° N 20:49:28 28° WSW 20:51:53 10° SW
Nadezhda 3 Rocket 4.1 20:48:56 10° N 20:54:16 68° NNW 20:54:16 68° NNW
Cosmos 2333 Rocket 3.0 20:53:37 10° NNW 20:57:35 46° NNW 20:57:35 46° NNW
Cosmos 2154 Rocket 4.2 20:56:56 10° SSW 21:03:40 67° NW 21:09:36 10° N
Cosmos 2237 Rocket 4.4 21:49:51 10° NW 21:51:42 20° NW 21:51:42 20° NW
ATLAS 2AS CENTAUR R/B 4.5 21:49:18 10° NNW 21:53:34 27° N 21:53:34 27° N
